Content
SEND FEEDBACK

Daily
Averages
Monthly
Summary
United States of America

NEW YORK - CENTRAL PARK, NEW YORK


Home > North America > United States > New York
Elevation: 14 feet     Latitude: 40 47N     Longitude: 073 58W

WEATHER
 
SELECT A DAY
Number of Records: 148,168;   Date Range: 11/1/95 - 8/12/14
 
SHARE

PRINT THIS DATA

[ ← Previous Day ]
WEATHER ALMANAC - JANUARY 9, 2013
[ Next Day → ]
[ °C ]   °F
Weather ElementAverageHighLow
Temperature44.7 °F48.9 °F (4:51 pm)39 °F (5:51 am)
Dewpoint32.2 °F36 °F (4:51 pm)27 °F (1:51 am)
Humidity61.7 %73 % (8:51 am)54 % (12:51 pm)
Barometer30.27 in30.38 in (7:51 am)30.14 in (2:51 pm)
Wind Speed4.1 mph11.5 mph (12:51 pm)
Wind Gust18.4 mph (12:51 pm)
Weather ElementAverage
Visibility7.8 mi
Wind DirectionE (92.6 °)

Weather ElementTotal
Precipitation---
Heating Degree Days21.1 (Base 65)
Averaged from 23 records on January 9, 2013
WEATHER CONDITIONS BREAKOUT
WIND DIRECTION BREAKOUT
WEATHER BY HOUR - JANUARY 9, 2013
[ °C ]   °F
Local TimeTemperatureDewpointHumidityBarometerVisibilityWind DirectionWind SpeedGust SpeedPrecipitationEventsConditions
1:51 AM41.0 °F27.0 °F57 %30.37 in8.0 miCalmClear
2:51 AM39.9 °F27.0 °F60 %30.37 in7.0 miWSW (250°)4.6 mphPartly Cloudy
3:51 AM41.0 °F28.0 °F60 %30.36 in7.0 miNW (320°)3.5 mphMostly Cloudy
4:51 AM41.0 °F28.0 °F60 %30.36 in8.0 miCalmOvercast
5:51 AM39.0 °F28.0 °F65 %30.36 in7.0 miCalmScattered Clouds
6:51 AM39.9 °F28.9 °F65 %30.36 in7.0 miNE (40°)4.6 mphMostly Cloudy
7:51 AM39.0 °F30.0 °F70 %30.38 in5.0 miNorth (360°)3.5 mphHaze
8:51 AM39.9 °F32.0 °F73 %30.38 in5.0 miCalmHaze
9:51 AM44.1 °F32.0 °F63 %30.36 in4.0 miCalmHaze
10:51 AM46.9 °F32.0 °F56 %30.31 in6.0 miSouth (180°)5.8 mphHaze
11:51 AM48.0 °F33.1 °F56 %30.28 in6.0 miVariable4.6 mphHaze
12:51 PM48.0 °F32.0 °F54 %30.24 in9.0 miWest (260°)11.5 mph18.4 mphMostly Cloudy
1:51 PM46.9 °F33.1 °F59 %30.25 in7.0 miNorthOvercast
2:51 PM46.9 °F34.0 °F61 %30.14 in7.0 miVariable6.9 mphOvercast
3:51 PM48.0 °F35.1 °F61 %30.14 in9.0 miWSW (240°)6.9 mphMostly Cloudy
4:51 PM48.9 °F36.0 °F61 %30.14 in9.0 miSW (230°)6.9 mphMostly Cloudy
5:51 PM48.9 °F36.0 °F61 %30.17 in10.0 miVariable4.6 mphOvercast
6:51 PM48.0 °F36.0 °F63 %30.17 in10.0 miVariable4.6 mphClear
7:51 PM46.9 °F36.0 °F66 %30.19 in10.0 miNorthClear
8:51 PM46.9 °F35.1 °F63 %30.19 in9.0 miVariable3.5 mphClear
9:51 PM46.9 °F35.1 °F63 %30.18 in9.0 miWSW (250°)5.8 mphClear
10:51 PM46.0 °F33.1 °F61 %30.21 in10.0 miNorthClear
11:51 PM45.0 °F32.0 °F60 %30.22 in10.0 miVariable4.6 mphClear
Hourly data recorded from KNYC, located miles away from New York - Central Park, New York







STORIES FROM OUR PARTNERS